Date String (YYYY-MM-DD hh:mm:ss) UTC,Instrument flags,Ambient pressure (hPa),Sample flow (lpm),Bypass flow (lpm),Sample temperature (°C),Ambient temperature (°C),ASC tube jacket temperature (°C),LED temperature (°C),Box temperature (°C),Sample RH (%),Span deviation,Mass concentration (μg/m³),Mass concentration (μg/m³),Mass concentration (μg/m³)
DateTimeUTC,F1_M11,P_M11,Q1_M11,Q2_M11,T1_M11,T2_M11,T3_M11,T4_M11,T5_M11,U1_M11,ZSPAN_M11,X0_M11,X2_M11,X1_M11
2022-10-29 17:00:00,,0831.2,5.00,0.00,24.7,23.6,00.0,33.5,26.7,12.6,0006.8,0010.86,0006.88,0006.40
2022-10-29 17:01:00,,0831.1,5.01,0.00,24.8,23.6,00.0,33.5,26.7,12.7,0007.6,0010.97,0006.84,0006.33
2022-10-29 17:02:00,,0831.2,4.99,0.00,24.8,23.6,00.0,33.5,26.8,12.7,0006.7,0010.78,0006.74,0006.25
2022-10-29 17:03:00,,0831.2,4.99,0.00,24.8,23.7,00.0,33.5,26.8,12.9,0003.1,0010.59,0006.68,0006.18
2022-10-29 17:04:00,,0831.2,5.01,0.00,24.8,23.7,00.0,33.5,26.8,13.1,0002.2,0010.22,0006.61,0006.13
2022-10-29 17:05:00,,0831.1,5.01,0.00,24.8,23.7,00.0,33.5,26.8,13.0,0002.0,0010.45,0006.57,0006.09
2022-10-29 17:06:00,,0831.1,5.00,0.00,24.8,23.7,00.0,33.6,26.8,13.0,0002.2,0010.24,0006.52,0006.06
2022-10-29 17:07:00,,0831.1,5.01,0.00,24.9,23.7,00.0,33.6,26.8,12.9,0001.4,0010.16,0006.47,0006.03
2022-10-29 17:08:00,,0831.1,4.98,0.00,24.9,23.7,00.0,33.6,26.8,13.1,0000.4,0010.19,0006.45,0006.02
2022-10-29 17:09:00,,0831.2,5.01,0.00,24.9,23.8,00.0,33.6,26.8,12.9,0000.3,0010.33,0006.41,0005.99
2022-10-29 17:10:00,,0831.1,5.00,0.00,24.9,23.8,00.0,33.6,26.8,12.9,0000.6,0011.01,0006.37,0005.98
2022-10-29 17:11:00,,0831.0,5.00,0.00,24.9,23.8,00.0,33.6,26.8,13.0,0002.2,0011.60,0006.34,0005.96
2022-10-29 17:12:00,,0831.1,5.00,0.00,24.9,23.8,00.0,33.7,26.9,13.0,0003.8,0011.47,0006.32,0005.96
2022-10-29 17:13:00,,0831.1,5.00,0.00,25.0,23.8,00.0,33.7,26.9,12.4,0005.4,0011.67,0006.31,0005.96
2022-10-29 17:14:00,,0831.0,5.00,0.00,25.0,23.9,00.0,33.7,26.9,12.0,0006.1,0011.76,0006.29,0005.96
2022-10-29 17:15:00,,0831.0,4.98,0.00,25.0,23.9,00.0,33.7,26.9,11.8,0000.0,0011.76,0006.28,0005.96
2022-10-29 17:16:00,,0831.0,5.01,0.00,25.0,23.9,00.0,33.7,27.0,12.0,0000.0,0011.48,0006.28,0005.95
2022-10-29 17:17:00,,0831.0,5.00,0.00,25.0,23.9,00.0,33.7,27.0,12.1,0000.0,0011.37,0006.28,0005.94
2022-10-29 17:18:00,,0831.0,5.00,0.00,25.0,23.9,00.0,33.7,27.0,11.9,0000.0,0011.47,0006.30,0005.92
2022-10-29 17:19:00,,0831.0,5.01,0.00,25.1,24.0,00.0,33.8,27.0,11.4,0000.0,0012.19,0006.28,0005.90
2022-10-29 17:20:00,,0831.0,4.99,0.00,25.1,24.0,00.0,33.8,27.0,11.5,0004.5,0012.19,0006.24,0005.86
2022-10-29 17:21:00,,0831.1,5.00,0.00,25.1,24.0,00.0,33.8,27.0,11.6,0003.8,0011.58,0006.19,0005.82
2022-10-29 17:22:00,,0831.0,5.01,0.00,25.1,24.0,00.0,33.8,27.0,11.2,0000.0,0010.83,0006.19,0005.81
2022-10-29 17:23:00,,0831.0,4.99,0.00,25.1,24.0,00.0,33.8,27.1,11.1,0005.0,0011.16,0006.19,0005.82
2022-10-29 17:24:00,,0830.9,5.01,0.00,25.1,24.0,00.0,33.8,27.1,10.9,0003.3,0011.22,0006.23,0005.84
2022-10-29 17:25:00,,0830.9,5.01,0.00,25.1,24.0,00.0,33.9,27.1,11.0,0003.7,0011.18,0006.26,0005.84
2022-10-29 17:26:00,,0831.0,5.00,0.00,25.2,24.0,00.0,33.9,27.1,11.2,0003.2,0011.29,0006.26,0005.85
2022-10-29 17:27:00,,0831.0,5.00,0.00,25.2,24.1,00.0,33.9,27.2,11.2,0000.0,0011.23,0006.26,0005.88
2022-10-29 17:28:00,,0830.9,5.01,0.00,25.2,24.1,00.0,33.9,27.2,11.0,0000.0,0011.23,0006.27,0005.92
2022-10-29 17:29:00,,0830.9,5.00,0.00,25.2,24.1,00.0,33.9,27.2,10.9,0000.0,0011.17,0006.27,0005.95
2022-10-29 17:30:00,,0830.9,4.98,0.00,25.2,24.1,00.0,33.9,27.2,10.8,0000.0,0010.53,0006.29,0005.97
2022-10-29 17:31:00,,0830.9,5.00,0.00,25.2,24.1,00.0,33.9,27.2,10.8,0000.0,0010.27,0006.34,0006.02
2022-10-29 17:32:00,,0830.9,5.00,0.00,25.2,24.1,00.0,34.0,27.2,10.9,0000.0,0010.36,0006.39,0006.06
2022-10-29 17:33:00,,0830.9,4.98,0.00,25.3,24.1,00.0,34.0,27.2,10.8,0000.0,0010.37,0006.41,0006.07
2022-10-29 17:34:00,,0830.9,5.01,0.00,25.3,24.1,00.0,34.0,27.2,11.0,0000.0,0009.84,0006.36,0006.03
2022-10-29 17:35:00,,0830.9,5.00,0.00,25.3,24.1,00.0,34.0,27.2,10.3,0000.0,0009.33,0006.28,0005.97
2022-10-29 17:36:00,,0830.9,4.98,0.00,25.3,24.1,00.0,34.0,27.2,09.5,0000.0,0009.39,0006.18,0005.88
2022-10-29 17:37:00,,0830.9,5.02,0.00,25.3,24.1,00.0,34.0,27.2,09.3,0000.0,0009.22,0006.06,0005.76
2022-10-29 17:38:00,,0830.9,5.01,0.00,25.3,24.1,00.0,34.0,27.2,08.8,0000.0,0009.56,0005.90,0005.59
2022-10-29 17:39:00,,0830.9,4.98,0.00,25.3,24.1,00.0,34.0,27.2,08.8,0000.0,0009.42,0005.73,0005.41
2022-10-29 17:40:00,,0830.9,5.01,0.00,25.3,24.1,00.0,34.0,27.3,08.2,0000.0,0009.18,0005.53,0005.21
2022-10-29 17:41:00,,0830.9,5.01,0.00,25.3,24.1,00.0,34.0,27.3,08.3,0000.0,0009.13,0005.30,0005.00
2022-10-29 17:42:00,,0830.9,5.00,0.00,25.3,24.1,00.0,34.0,27.3,08.7,0000.0,0009.07,0005.10,0004.82
2022-10-29 17:43:00,,0830.9,4.98,0.00,25.3,24.1,00.0,34.1,27.3,08.6,0000.0,0008.94,0004.95,0004.66
2022-10-29 17:44:00,,0830.9,5.01,0.00,25.3,24.1,00.0,34.1,27.3,07.9,0000.0,0008.63,0004.73,0004.46
2022-10-29 17:45:00,,0830.9,5.00,0.00,25.3,24.1,00.0,34.1,27.3,07.9,0000.0,0008.40,0004.56,0004.28
2022-10-29 17:46:00,,0830.9,5.01,0.00,25.4,24.1,00.0,34.1,27.3,07.7,0000.0,0008.20,0004.40,0004.12
2022-10-29 17:47:00,,0830.9,4.98,0.00,25.4,24.1,00.0,34.1,27.3,07.0,0000.0,0007.80,0004.23,0003.95
2022-10-29 17:48:00,,0830.9,5.01,0.00,25.3,24.0,00.0,34.1,27.3,07.2,0000.0,0007.57,0004.10,0003.82
2022-10-29 17:49:00,,0830.9,5.01,0.00,25.3,24.0,00.0,34.1,27.2,07.2,0000.0,0006.90,0004.00,0003.73
2022-10-29 17:50:00,,0830.9,5.01,0.00,25.3,23.9,00.0,34.1,27.2,07.4,0000.0,0007.12,0003.94,0003.65
2022-10-29 17:51:00,,0830.8,4.97,0.00,25.3,23.9,00.0,34.1,27.2,07.7,0000.0,0007.77,0003.89,0003.61
2022-10-29 17:52:00,,0830.8,5.00,0.00,25.3,23.8,00.0,34.1,27.1,07.7,0000.0,0007.62,0003.88,0003.59
2022-10-29 17:53:00,,0830.9,5.00,0.00,25.3,23.8,00.0,34.1,27.2,08.1,0000.0,0007.35,0003.83,0003.53
2022-10-29 17:54:00,,0830.8,5.01,0.00,25.3,23.9,00.0,34.1,27.2,07.7,0000.0,0007.18,0003.73,0003.47
2022-10-29 17:55:00,,0830.8,5.00,0.00,25.3,24.0,00.0,34.1,27.2,07.5,0000.0,0007.04,0003.67,0003.41
2022-10-29 17:56:00,,0830.8,4.99,0.00,25.3,24.0,00.0,34.1,27.2,07.5,0000.0,0006.84,0003.59,0003.36
2022-10-29 17:57:00,,0830.8,5.01,0.00,25.3,24.0,00.0,34.1,27.2,07.1,0000.0,0006.74,0003.53,0003.31
2022-10-29 17:58:00,,0830.8,4.98,0.00,25.3,24.0,00.0,34.1,27.2,06.9,0000.0,0006.69,0003.50,0003.29
2022-10-29 17:59:00,,0830.8,5.01,0.00,25.3,24.0,00.0,34.1,27.2,07.1,0000.0,0006.62,0003.46,0003.26
